CAPE
0 0 0 0 1 5 0 9 84 469 504 693 581 593 676 508 442 387 173 354 554 812 964 1004 967 1187 1313 1087 1002 1133 1019 1217 1224 1084 891 622 550 269 268 117 16 383 288
0 0 0 0 1 19 8 18 90 639 762 819 751 640 627 686 366 241 232 142 757 1010 987 1077 1170 908 964 1455 1431 1696 1282 1257 1388 1124 924 684 366 92 0 0 0 38 14
14 0 0 0 0 61 49 45 166 428 783 923 815 808 649 528 622 358 195 216 317 419 663 979 1286 1227 967 886 1317 1285 1489 957 1271 1326 1110 876 473 512 35 0 0 7 4
234 7 0 0 0 26 254 226 306 633 644 934 990 974 1052 772 582 821 452 465 518 477 562 677 840 1175 1563 1611 1344 1142 1260 1371 1391 1312 1423 1278 1047 837 671 419 251 364 67
525 244 20 4 0 67 209 502 551 902 919 876 1036 789 1000 1190 1067 1364 1067 963 1196 853 711 729 845 1116 1311 1383 1386 1301 1451 1629 1639 1386 1306 1176 1042 897 855 516 642 508 404
621 523 298 90 26 92 313 715 731 877 1276 1051 982 1577 1588 1289 1474 1411 1193 1119 1173 1858 1418 1134 1114 1313 1670 1768 1718 1611 1438 1488 1488 1360 1557 1518 1178 965 951 846 603 634 517
110 287 604 318 146 133 451 724 868 1014 1329 1541 1485 1093 1439 2202 2055 1574 1621 1780 1756 1815 1890 1887 1627 1668 1716 1957 1960 1967 1853 1825 1782 1605 1374 1320 1095 959 867 854 767 570 84
146 300 430 760 491 386 473 763 1041 948 1233 1714 1670 1913 1662 1501 1732 2078 2135 2325 2291 2190 2068 2025 2154 2101 2232 2185 2139 2140 1987 1811 1451 1632 1756 1622 1311 1376 1058 877 774 333 389
399 506 675 1140 968 782 679 830 1392 1321 1386 1349 2082 2506 2505 2433 1900 1995 2025 2073 1960 2303 2340 1912 1588 2016 2307 2457 2358 2170 1967 1840 1937 1917 1847 1690 1552 1648 1552 1204 839 556 334
773 811 886 947 1378 1380 1168 977 1505 1604 1619 2187 1915 2353 2963 2827 2469 2488 2444 1739 257 135 1543 2360 2750 2873 2798 2653 2502 2271 2000 1379 1488 1936 2041 1679 1611 1786 1734 1551 1184 992 679
767 843 903 943 1066 1153 1314 1505 1958 2189 2250 2488 2799 2668 2447 1841 1544 1127 1639 1055 1695 2107 2043 1966 2151 2201 2784 2729 2529 2246 1799 1561 1989 2172 2104 1939 2025 1697 1482 1351 1259 1192 812
595 654 840 1067 1205 1136 1100 1592 2352 2692 2745 2637 2411 2230 1866 1229 682 1305 1710 2107 2463 2461 2588 2597 2572 2750 2649 2862 2693 2148 1628 1699 1803 1979 1929 1662 1596 1177 858 574 371 264 427
1093 1255 1372 1408 1354 1085 932 1194 1540 1576 1448 1696 2046 1892 2334 2964 2841 2880 2939 2953 2881 2828 3053 3283 3114 2967 3020 2930 2665 2399 2162 2066 1709 1747 1805 1529 1129 616 376 51 97 574 764
1261 1231 1154 980 878 584 276 229 231 232 438 755 952 1062 1246 1463 1490 1579 1711 2067 2678 3305 3137 2902 2940 3153 3012 3058 3003 2668 2451 2223 1888 1593 1391 1043 687 442 89 12 144 245 331
662 420 281 186 107 71 9 12 2 0 0 0 0 12 50 128 316 753 1208 1391 1550 1837 2530 3168 3061 2953 2948 3084 2969 2734 2346 2102 1711 1390 1050 791 550 256 3 0 48 141 179
243 193 164 86 44 21 20 13 0 0 0 0 0 0 6 12 10 14 36 474 1181 1202 1262 1288 1831 2235 2701 3026 2969 2591 2114 1716 1504 1191 955 646 414 47 0 4 5 10 119
117 4 13 43 0 2 3 1 0 0 0 0 0 18 27 47 79 136 218 180 166 736 1406 1152 1139 1460 1826 2428 2534 2347 1963 1520 1243 1078 918 536 134 45 0 11 10 28 19
0 5 28 6 0 0 0 0 0 0 0 2 0 0 0 0 0 0 1 23 106 149 437 1217 821 1008 1509 2085 2034 1835 1691 1493 1237 1113 876 583 277 56 0 0 0 0 0
32 12 0 0 0 0 0 0 0 0 0 0 0 0 0 0 0 0 0 0 0 38 146 248 938 1065 1503 1537 1311 1265 1159 1366 1115 1179 1002 475 58 1 0 0 0 0 0
0 0 0 0 0 0 0 0 0 0 0 0 3 0 0 0 0 0 0 0 0 1 78 154 116 807 1143 925 943 863 963 968 807 515 487 281 11 0 0 0 0 0 0
0 0 0 0 0 0 0 0 0 0 1 0 0 0 0 0 0 0 0 1 0 0 1 102 270 674 725 559 338 307 553 683 393 80 54 3 0 0 0 0 0 0 0
0 0 0 0 0 0 0 0 0 0 0 1 0 2 1 0 1 1 0 0 1 6 0 0 238 250 160 141 0 0 47 28 47 10 0 0 0 0 0 0 0 0 0
0 0 0 0 0 0 0 0 0 0 0 0 0 0 0 2 3 1 0 0 0 177 186 250 68 0 0 1 0 0 0 0 0 0 0 0 0 0 0 0 0 0 0
0 0 0 0 0 0 0 0 0 0 0 0 0 0 0 1 2 3 0 0 0 0 31 0 0 1 2 0 1 0 0 0 0 0 0 0 0 0 0 0 0 0 0
0 0 0 0 0 0 0 0 0 0 0 0 0 0 0 0 1 4 3 1 3 0 2 3 2 3 1 0 0 0 0 0 0 0 0 0 0 0 0 0 0 0 0
33 6 0 0 0 0 0 0 0 0 0 0 0 0 0 1 0 1 1 0 0 0 0 0 1 0 0 0 0 0 0 0 0 0 1 0 0 0 0 0 0 0 0
CIN
-0 -0 -0 -0 -105 -302 -0 -549 -457 -384 -355 -291 -301 -275 -238 -237 -227 -205 -275 -192 -116 -89 -77 -61 -36 -28 -20 -18 -25 -29 -22 -20 -24 -21 -20 -96 -113 -115 -184 -314 -355 -78 -143
-0 -0 -0 -0 -98 -521 -545 -550 -447 -399 -377 -345 -329 -310 -260 -213 -238 -255 -249 -277 -98 -64 -82 -69 -50 -41 -21 -9 -12 -12 -13 -20 -16 -9 -25 -25 -81 -210 -0 -0 -0 -132 -198
-304 -0 -0 -0 -0 -465 -491 -525 -456 -415 -397 -357 -325 -288 -278 -261 -205 -237 -260 -241 -189 -161 -105 -68 -49 -54 -53 -40 -18 -18 -12 -21 -15 -16 -11 -12 -35 -27 -130 -0 -0 -130 -78
-206 -168 -0 -0 -0 -461 -447 -476 -445 -386 -399 -337 -319 -279 -220 -229 -230 -175 -201 -184 -161 -152 -153 -123 -98 -71 -47 -31 -32 -33 -18 -14 -11 -16 -16 -16 -18 -16 -37 -102 -131 -139 -109
-144 -271 -357 -425 -33 -469 -421 -423 -433 -380 -344 -343 -286 -282 -225 -184 -166 -93 -113 -94 -81 -141 -137 -150 -137 -90 -76 -73 -62 -65 -46 -30 -15 -21 -15 -24 -17 -36 -24 -63 -46 -83 -70
-89 -159 -271 -383 -466 -486 -407 -412 -405 -385 -318 -299 -283 -186 -169 -171 -128 -88 -105 -98 -72 -31 -61 -75 -113 -111 -81 -73 -79 -70 -84 -63 -50 -32 -17 -15 -15 -28 -25 -28 -44 -45 -61
-125 -111 -182 -296 -380 -410 -356 -400 -385 -347 -303 -258 -231 -251 -194 -92 -75 -147 -170 -121 -99 -44 -29 -40 -55 -80 -85 -83 -79 -77 -79 -71 -46 -39 -35 -34 -44 -46 -34 -24 -31 -50 -133
-159 -161 -167 -198 -273 -276 -314 -301 -371 -337 -298 -217 -220 -198 -169 -189 -160 -179 -170 -161 -110 -112 -69 -44 -41 -43 -63 -83 -66 -78 -82 -100 -137 -68 -43 -42 -50 -45 -39 -25 -22 -76 -65
-149 -163 -124 -138 -177 -175 -172 -225 -255 -275 -260 -252 -192 -165 -138 -146 -169 -174 -159 -151 -162 -99 -115 -81 -65 -48 -43 -64 -67 -60 -94 -94 -86 -76 -46 -47 -52 -42 -37 -38 -47 -27 -41
-158 -162 -148 -135 -134 -86 -94 -116 -142 -169 -214 -202 -182 -123 -81 -100 -139 -153 -188 -216 -442 -410 -205 -110 -40 -33 -35 -56 -36 -46 -64 -110 -104 -66 -47 -59 -46 -31 -30 -33 -37 -38 -19
-165 -168 -139 -157 -174 -155 -146 -93 -108 -128 -169 -154 -103 -83 -86 -134 -175 -248 -245 -281 -198 -167 -173 -140 -69 -27 -12 -18 -24 -27 -41 -65 -53 -24 -25 -36 -27 -26 -33 -41 -37 -32 -44
-153 -164 -157 -219 -255 -256 -225 -182 -158 -131 -93 -76 -77 -88 -103 -168 -271 -192 -174 -151 -113 -110 -101 -70 -60 -33 -17 -20 -19 -35 -67 -38 -23 -12 -14 -36 -39 -51 -79 -102 -121 -123 -97
-179 -200 -238 -272 -301 -319 -301 -270 -209 -203 -213 -170 -118 -121 -81 -45 -59 -64 -57 -44 -46 -57 -36 -15 -13 -15 -15 -9 -14 -15 -23 -15 -24 -22 -25 -39 -63 -91 -108 -216 -178 -34 -12
-205 -238 -267 -326 -343 -366 -457 -491 -505 -486 -376 -272 -244 -230 -208 -183 -177 -173 -163 -125 -64 -16 -16 -21 -26 -11 -11 -12 -7 -8 -17 -13 -25 -48 -48 -95 -122 -130 -223 -174 -156 -24 -26
-288 -346 -375 -404 -441 -474 -601 -634 -159 -154 -30 -0 -0 -108 -439 -440 -363 -261 -182 -149 -129 -87 -26 -2 -6 -13 -15 -12 -14 -10 -26 -40 -61 -75 -103 -148 -181 -215 -209 -26 -161 -106 -63
-430 -493 -515 -467 -476 -515 -535 -541 -0 -0 -0 -0 -0 -0 -468 -525 -533 -577 -554 -357 -192 -170 -128 -119 -47 -18 -6 -4 -7 -13 -23 -74 -74 -115 -109 -157 -174 -300 -0 -150 -276 -209 -37
-530 -261 -477 -528 -0 -183 -459 -447 -0 -0 -0 -0 -0 -381 -564 -572 -540 -498 -446 -456 -432 -237 -93 -108 -90 -43 -23 -7 -9 -25 -24 -33 -36 -52 -68 -130 -210 -255 -0 -284 -215 -144 -123
-0 -123 -518 -218 -0 -0 -0 -0 -0 -0 -0 -241 -0 -0 -0 -0 -0 -0 -308 -641 -461 -367 -249 -64 -112 -64 -17 -13 -13 -19 -39 -25 -24 -22 -33 -60 -98 -146 -0 -0 -0 -0 -0
-549 -512 -0 -0 -0 -0 -0 -0 -0 -0 -0 -0 -0 -0 -0 -0 -0 -0 -0 -0 -132 -568 -374 -339 -83 -24 -14 -33 -45 -40 -59 -22 -17 -6 -7 -52 -137 -28 -0 -0 -0 -0 -0
-0 -0 -0 -0 -0 -0 -0 -0 -0 -0 -0 -0 -1 -0 -0 -0 -0 -0 -0 -0 -0 -0 -473 -428 -464 -73 -15 -63 -69 -81 -58 -31 -25 -57 -39 -63 -135 -0 -0 -1 -0 -0 -0
-0 -0 -0 -0 -0 -0 -0 -0 -0 -0 -1 -0 -0 -0 -0 -0 -0 -0 -0 -0 -0 -0 -8 -481 -299 -85 -63 -91 -160 -141 -39 -28 -80 -149 -150 -54 -0 -0 -0 -0 -0 -0 -0
-0 -0 -0 -0 -0 -0 -0 -0 -0 -0 -0 -1 -2 -6 -4 -0 -0 -0 -0 -0 -0 -410 -0 -98 -284 -266 -278 -214 -0 -0 -145 -124 -153 -151 -0 -0 -0 -0 -0 -0 -0 -0 -0
-0 -0 -0 -0 -0 -0 -0 -0 -0 -0 -0 -0 -0 -0 -4 -0 -0 -0 -0 -0 -0 -338 -278 -210 -343 -9 -0 -0 -0 -0 -0 -8 -0 -0 -0 -0 -0 -0 -0 -0 -0 -0 -0
-0 -0 -0 -0 -0 -0 -0 -0 -0 -0 -0 -0 -0 -0 -0 -0 -0 -0 -0 -0 -0 -0 -294 -0 -0 -0 -0 -0 -0 -0 -0 -0 -0 -0 -0 -0 -0 -0 -0 -0 -0 -0 -0
-0 -0 -0 -0 -0 -0 -0 -0 -0 -0 -0 -0 -0 -0 -0 -0 -0 -0 -0 -0 -0 -0 -0 -0 -0 -0 -0 -0 -0 -0 -0 -0 -0 -0 -0 -0 -0 -0 -0 -0 -0 -0 -0
-166 -43 -0 -0 -0 -0 -0 -0 -0 -0 -0 -0 -0 -0 -0 -0 -0 -0 -0 -0 -0 -0 -0 -0 -0 -0 -0 -0 -0 -0 -0 -0 -0 -0 -7 -0 -0 -0 -0 -0 -0 -0 -0
Wind_Speed
24 23 23 23 22 23 23 23 20 19 17 16 17 15 15 15 14 13 14 10 11 10 9 7 7 6 4 4 4 6 8 13 14 16 19 20 18 16 8 7 9 10 11
22 22 22 22 21 21 22 21 20 18 18 17 16 14 13 13 13 14 13 13 11 11 10 7 6 6 5 4 5 7 10 14 13 16 17 20 19 17 11 11 17 9 14
20 20 21 21 20 20 21 20 19 18 18 16 14 12 12 14 12 11 11 13 14 11 9 7 5 6 4 6 3 5 7 9 11 13 15 20 20 21 16 17 11 14 5
20 19 20 20 20 20 19 19 18 16 16 16 14 13 11 12 11 9 10 8 10 10 9 8 7 6 3 3 2 2 3 5 6 13 12 14 16 20 21 18 16 21 16
18 20 21 20 19 18 19 18 17 14 14 14 12 12 11 9 7 5 5 5 4 10 11 10 8 6 5 5 5 4 2 6 8 9 11 15 13 13 17 24 22 22 24
10 15 17 20 18 15 15 15 15 14 12 13 13 10 9 10 5 2 5 7 2 4 5 8 6 6 5 4 2 2 3 5 7 8 10 12 15 15 12 13 18 26 26
10 7 13 14 15 15 14 13 14 11 13 11 11 13 12 5 1 4 4 6 3 9 13 7 7 8 7 6 5 4 6 8 8 5 7 9 12 14 13 17 18 22 25
13 13 10 11 13 14 12 11 12 12 11 11 11 10 13 12 8 8 7 12 11 11 16 18 14 9 11 10 9 8 8 9 9 8 9 11 12 14 15 17 20 32 29
11 14 15 9 10 11 11 9 10 10 10 10 6 8 9 10 12 8 7 16 18 20 19 14 13 14 12 13 12 12 10 11 10 8 9 11 12 13 12 16 16 19 36
12 14 16 17 10 7 6 4 7 7 8 6 6 4 4 6 8 9 8 11 12 16 10 14 24 21 18 15 14 15 15 13 12 11 11 11 14 14 14 15 18 22 25
10 13 15 16 15 15 12 10 3 1 1 2 1 1 3 6 8 9 12 15 14 18 17 17 20 22 21 16 15 19 19 18 17 15 15 13 15 17 20 24 26 25 26
10 13 15 17 17 16 16 15 13 10 7 5 4 5 5 9 9 11 13 12 15 17 16 19 20 20 22 20 16 16 20 20 19 19 21 17 21 22 25 29 31 32 22
11 14 16 17 18 18 17 16 15 14 15 16 13 12 14 14 14 16 20 21 21 22 22 22 21 22 22 20 17 15 16 19 21 17 16 18 22 24 26 30 33 29 23
9 12 15 17 19 18 18 18 19 18 18 19 21 21 22 23 24 25 27 27 28 27 24 25 26 25 24 22 19 16 16 18 18 16 15 18 20 22 24 26 25 27 23
9 13 16 19 20 20 21 20 21 22 22 22 22 23 25 28 30 30 30 29 30 30 33 31 29 28 28 25 20 17 15 16 17 16 16 16 18 19 17 13 12 18 17
5 9 12 15 19 20 21 22 23 24 23 25 25 26 28 30 32 33 35 37 36 35 35 35 35 35 33 26 20 18 17 17 16 17 17 16 16 16 14 13 12 15 14
8 12 13 18 20 20 20 23 25 26 27 28 29 31 33 35 36 38 39 40 40 41 38 36 34 34 31 24 18 17 16 17 18 17 17 15 14 12 13 14 14 13 10
10 15 15 17 17 21 22 25 28 29 30 31 34 36 38 40 41 42 42 42 41 39 40 39 36 33 31 22 18 16 17 16 16 16 13 11 10 9 11 12 13 13 13
9 11 14 16 19 21 23 26 29 30 33 36 37 38 39 41 42 43 42 41 42 42 39 41 39 31 26 20 16 15 16 18 15 13 10 9 7 8 7 9 10 11 12
9 12 14 17 20 24 24 26 28 31 33 35 36 37 39 41 42 42 42 40 39 37 37 36 35 30 23 17 15 14 15 16 13 11 10 7 6 7 9 4 5 8 8
13 14 15 18 21 23 24 26 28 30 32 33 34 35 36 39 40 41 40 38 37 36 36 34 30 24 19 17 14 12 14 11 10 10 9 8 7 7 7 4 5 6 5
14 14 16 19 21 22 23 26 28 29 30 30 32 34 36 38 40 40 39 39 38 33 31 29 23 19 16 14 13 13 13 12 11 9 9 9 7 7 7 6 5 3 4
14 14 15 18 21 22 23 26 27 25 28 30 32 34 35 36 38 38 38 37 37 34 27 22 16 15 14 14 13 15 12 21 11 7 5 9 10 8 6 4 5 7 6
15 15 16 18 20 22 22 24 25 25 25 30 32 33 34 35 36 37 35 34 34 31 23 20 16 14 14 14 15 17 15 16 16 11 5 7 9 10 9 8 9 8 11
17 17 17 18 19 20 21 21 23 24 25 27 30 31 32 33 33 33 35 32 31 28 24 22 19 16 15 17 14 11 10 10 10 9 7 7 6 7 8 8 8 8 8
15 16 15 15 15 16 18 19 20 23 23 25 28 30 31 31 31 30 31 33 31 29 26 23 19 17 16 16 14 12 9 8 4 2 14 12 8 8 10 12 12 13 8
Wind_Direction
148 147 146 146 142 147 147 147 140 138 134 133 138 144 154 163 165 168 175 139 146 147 140 132 140 158 129 132 94 52 41 20 22 10 1 11 16 17 52 51 44 16 31
146 146 147 150 145 146 150 149 148 138 140 138 138 134 142 153 159 164 164 167 147 149 152 143 149 151 154 93 72 62 25 9 20 9 12 4 7 14 33 33 25 113 18
143 147 152 152 151 150 155 154 151 148 146 140 137 129 136 157 153 153 153 167 173 169 162 154 146 172 164 179 86 37 30 19 16 16 10 357 2 360 17 20 49 29 73
151 147 152 155 160 162 158 160 157 153 153 149 143 142 136 148 153 147 164 160 169 177 173 179 185 185 167 172 163 62 35 30 26 10 14 11 5 353 356 8 11 350 10
159 161 162 163 163 156 163 163 162 158 158 159 155 163 161 158 151 121 144 148 158 190 197 196 195 197 194 202 202 206 4 10 3 5 5 1 9 10 354 341 348 344 322
133 172 176 172 169 161 160 161 165 169 163 168 174 167 165 173 140 133 184 194 209 340 222 220 226 226 223 231 247 297 325 332 336 342 346 350 348 353 0 352 348 326 326
19 72 166 171 170 166 161 161 164 165 174 173 180 186 189 167 147 211 211 212 303 334 332 306 253 276 259 255 273 302 326 331 329 323 326 333 334 336 338 339 342 336 333
25 18 54 156 167 167 162 162 166 170 170 177 185 189 194 204 222 225 244 311 326 324 326 323 315 277 287 274 279 291 303 318 322 319 322 326 329 333 332 333 333 316 321
13 19 15 102 142 155 162 163 164 171 175 181 189 198 202 211 217 233 239 311 319 326 324 316 295 300 281 281 280 279 281 305 312 309 313 319 324 325 326 326 325 323 311
8 20 28 43 76 136 144 154 164 169 174 176 182 199 225 244 265 295 295 315 310 314 297 317 321 318 308 300 285 287 290 293 297 301 305 313 321 323 324 321 320 319 315
32 30 32 29 39 42 29 6 126 106 110 74 88 171 283 290 298 290 301 310 317 319 317 313 311 308 309 296 284 289 292 289 293 300 303 309 323 325 328 325 323 321 319
38 33 30 29 29 26 27 27 34 33 28 31 7 341 342 337 319 312 320 312 312 316 312 314 313 313 302 305 286 274 287 289 297 305 305 308 317 323 326 325 323 320 323
37 33 27 23 20 16 11 21 23 15 5 0 355 350 341 338 335 330 327 324 321 318 316 315 310 309 308 300 290 280 281 290 297 298 300 310 318 321 327 328 321 322 323
33 20 11 6 3 1 359 357 358 357 349 339 334 331 328 325 323 322 322 322 322 320 313 313 309 306 305 301 295 289 290 292 298 305 308 315 320 327 331 334 334 327 329
10 6 360 355 348 341 339 342 345 344 342 337 333 328 325 321 319 319 319 319 318 317 314 311 307 304 301 297 290 289 287 287 293 299 307 315 324 331 341 3 13 352 349
358 359 359 1 338 339 335 338 337 335 335 332 328 326 322 319 318 318 317 316 315 313 312 307 304 303 300 296 284 281 282 285 286 295 304 314 325 335 344 355 12 4 10
328 335 343 341 335 335 337 331 332 331 330 327 325 324 321 318 318 317 316 315 313 311 308 307 305 301 299 295 279 280 281 283 288 291 299 308 322 333 343 349 353 0 28
312 326 332 336 339 336 336 331 326 326 325 324 322 320 319 318 317 316 315 315 312 310 306 302 303 301 299 292 279 272 280 282 287 290 288 297 308 324 341 346 349 358 3
324 334 341 340 342 342 337 332 329 327 324 323 322 322 321 321 320 319 318 317 313 308 305 299 301 302 301 294 279 270 276 284 282 283 281 288 292 313 328 340 351 356 0
347 341 343 345 344 341 339 336 334 331 328 327 327 327 325 324 324 324 321 323 318 313 306 305 302 304 299 290 283 277 276 274 273 280 282 268 281 306 318 315 341 344 358
334 338 341 341 344 344 342 338 337 335 334 333 334 333 333 331 329 326 328 327 324 319 312 310 305 305 301 294 286 281 288 265 259 266 264 270 278 300 308 297 308 332 360
331 336 337 341 346 345 344 340 338 341 342 344 341 340 339 334 331 329 329 328 327 328 321 316 315 317 316 310 301 292 285 279 263 252 269 276 270 284 295 294 299 300 340
329 332 335 339 342 344 344 339 340 345 349 348 347 342 342 342 341 337 333 331 330 329 330 332 330 330 327 319 316 305 295 268 291 244 268 275 281 269 285 301 313 305 297
334 336 337 338 338 341 345 345 346 349 351 350 348 346 347 348 348 344 344 340 338 338 345 346 345 343 337 326 316 299 300 302 294 279 274 286 284 282 278 290 298 305 304
334 334 335 335 338 343 345 352 354 354 354 356 354 353 354 354 353 356 355 354 354 353 347 348 349 346 345 328 334 333 329 315 299 300 315 275 278 265 280 287 301 300 312
337 335 339 342 347 349 348 350 354 357 2 5 2 0 359 360 3 4 4 8 10 10 10 10 10 9 6 2 358 353 358 354 355 323 282 283 282 270 276 278 284 293 304